Palacios, TX

11:33 AM CDT on April 28, 2017 (GMT -0500)
Palacios Municipal

Weather History for KPSX - January, 2013

Change the Weather History Date:

Monday, January 21, 2013

  Actual Average Record
Temperature  
Mean Temperature 60 °F -  
Max Temperature 71 °F 61 °F 77 °F (1952)
Min Temperature 48 °F 44 °F 20 °F (1985)
Degree Days  
Heating Degree Days 6    
Growing Degree Days 10 (Base 50)    
Moisture  
Dew Point 50 °F    
Average Humidity 83    
Maximum Humidity 94    
Minimum Humidity 51    
Precipitation  
Precipitation 0.00 in - - ()
Sea Level Pressure  
Sea Level Pressure 30.18 in    
Wind  
Wind Speed 5 mph (East)    
Max Wind Speed 8 mph    
Max Gust Speed -    
Visibility 6 miles    
Events Fog    
Averages and records for this station are not official NWS values.
T = Trace of Precipitation, MM = Missing Value Source: NWS Daily Summary

Daily Weather History Graph

Daily Weather History Graph

Search for Another Location

Airport or City:

Trip Planner

Search our weather history database for the weather conditions in past years. The results will help you decide how hot, cold, wet, or windy it might be!

Date:

Astronomy

Jan. 21, 2013 Rise Set
Actual Time 7:17 AM CST 5:55 PM CST
Civil Twilight 6:52 AM CST 6:20 PM CST
Nautical Twilight 6:23 AM CST 6:49 PM CST
Astronomical Twilight 5:55 AM CST 7:17 PM CST
Moon 1:37 PM CST (1/21) 2:46 AM CST (1/21)
Length of Visible Light 11h 28m
Length of Day
10h 37m
Waxing Gibbous, 75% of the Moon is Illuminated
Jan 21
Waxing Gibbous
Jan 26
Full
Feb 3
Last Quarter
Feb 10
New
Feb 17
First Quarter

Hourly Weather History & Observations

Time (CST) Temp. Dew Point Humidity Pressure Visibility Wind Dir Wind Speed Gust Speed Precip Events Conditions
12:53 AM 54.0 °F 51.1 °F 90% 30.15 in 10.0 mi ESE 5.8 mph - N/A   Clear
1:53 AM 55.0 °F 52.0 °F 89% 30.15 in 10.0 mi SE 6.9 mph - N/A   Clear
2:53 AM 54.0 °F 51.1 °F 90% 30.14 in 10.0 mi ESE 4.6 mph - N/A   Clear
3:53 AM 52.0 °F 48.9 °F 89% 30.14 in 3.0 mi East 4.6 mph - N/A   Clear
4:19 AM 50.0 °F 48.2 °F 94% 30.13 in 1.8 mi ENE 4.6 mph - N/A   Clear
4:33 AM 48.2 °F 46.4 °F 93% 30.13 in 3.0 mi ENE 4.6 mph - N/A   Clear
4:43 AM 50.0 °F 48.2 °F 94% 30.13 in 1.8 mi ENE 5.8 mph - N/A   Clear
4:53 AM 50.0 °F 48.0 °F 93% 30.13 in 0.8 mi ENE 5.8 mph - N/A   Clear
5:53 AM 48.9 °F 46.9 °F 93% 30.14 in 0.5 mi ENE 4.6 mph - N/A Fog Fog
6:32 AM 48.2 °F 46.4 °F 93% 30.15 in 1.0 mi ENE 4.6 mph - N/A   Clear
6:40 AM 48.2 °F 46.4 °F 93% 30.15 in 0.5 mi ENE 4.6 mph - N/A Fog Fog
6:53 AM 48.9 °F 46.9 °F 93% 30.15 in 0.5 mi ENE 4.6 mph - N/A Fog Fog
7:25 AM 48.2 °F 46.4 °F 93% 30.17 in 1.2 mi ENE 4.6 mph - N/A   Clear
7:53 AM 48.9 °F 46.9 °F 93% 30.18 in 0.8 mi NE 4.6 mph - N/A   Clear
8:01 AM 48.2 °F 46.4 °F 93% 30.18 in 2.0 mi NE 4.6 mph - N/A   Clear
8:09 AM 48.2 °F 46.4 °F 93% 30.19 in 4.0 mi NE 4.6 mph - N/A   Clear
8:53 AM 57.0 °F 55.0 °F 93% 30.21 in 6.0 mi Calm Calm - N/A   Clear
9:53 AM 63.0 °F 57.0 °F 81% 30.24 in 10.0 mi Calm Calm - N/A   Clear
10:53 AM 66.9 °F 57.9 °F 73% 30.25 in 10.0 mi Calm Calm - N/A   Clear
11:53 AM 69.1 °F 54.0 °F 58% 30.23 in 10.0 mi SSW 5.8 mph - N/A   Partly Cloudy
12:53 PM 69.1 °F 54.0 °F 58% 30.21 in 10.0 mi SSW 4.6 mph - N/A   Clear
1:53 PM 69.1 °F 51.1 °F 53% 30.18 in 10.0 mi SSW 6.9 mph - N/A   Clear
2:53 PM 71.1 °F 52.0 °F 51% 30.17 in 10.0 mi Variable 3.5 mph - N/A   Clear
3:53 PM 70.0 °F 52.0 °F 53% 30.16 in 10.0 mi SSW 8.1 mph - N/A   Clear
5:53 PM 63.0 °F 48.9 °F 60% 30.18 in 10.0 mi ESE 6.9 mph - N/A   Clear
6:53 PM 57.9 °F 51.1 °F 78% 30.18 in 10.0 mi East 6.9 mph - N/A   Clear
7:53 PM 57.9 °F 52.0 °F 81% 30.19 in 10.0 mi East 6.9 mph - N/A   Clear
8:53 PM 55.0 °F 51.1 °F 86% 30.21 in 10.0 mi East 5.8 mph - N/A   Clear
9:53 PM 54.0 °F 50.0 °F 86% 30.22 in 9.0 mi ESE 4.6 mph - N/A   Clear
10:53 PM 53.1 °F 50.0 °F 89% 30.22 in 8.0 mi ESE 4.6 mph - N/A   Clear
11:53 PM 54.0 °F 51.1 °F 90% 30.20 in 6.0 mi ESE 3.5 mph - N/A   Clear